Погода в Чистом Поле

Россия / Красноярский край     55°14′51″N   91°11′03″E
темп.,
°C
ветер,
м/с
пор.,
м/с
влажн.,
%
обл.,
%
осадки,
мм/ч
давл.,
гПа
погр.,
м
27 января, чт
чт2701:00−16юз1197100 0.0 103210
04:00−18юз1198100 0.0 10339
07:00−17зюз1197100 0.0 103510
10:00−18з0097100 0.0 10369
13:00−12ююв118976 0.0 103684
16:00−13в0094100 0.0 10379
19:00−16всв1198100 0.1 10389
22:00−19вюв0010093 0.1 10399
28 января, пт
пт2801:00−22зюз11100100 0.1 10409
04:00−25юз11100100 0.0 10409
07:00−27зюз11100100 0.1 10419
10:00−27зюз11100100 0.0 10419
13:00−18ю019886 0.1 103872
16:00−18всв00998 0.0 10379
19:00−24ююз0110087 0.0 10389
22:00−27юз11100100 0.0 10399
29 января, сб
сб2901:00−28юз11100100 0.0 10389
04:00−27ююз11100100 0.0 10389
07:00−29юз1110095 0.0 10399
10:00−29юз1110099 0.0 10399
13:00−19ю119775 0.0 103791
16:00−19юв0098100 0.0 10379
19:00−21ю11100100 0.0 10379
22:00−23ю1110019 0.0 10389
30 января, вс
вс3001:00−27юз0010037 0.0 10389
04:00−28ююз1110013 0.0 10399
07:00−29юз111005 0.0 10399
10:00−28ю0010012 0.0 10399
13:00−19ю11895 0.0 103687
16:00−18всв00948 0.0 10359
19:00−24ююз009919 0.0 10369
22:00−26юз1110013 0.0 10369
31 января, пн
пн3101:00−28юз1110010 0.0 10369
04:00−28юз11995 0.0 10369
07:00−29юз11995 0.0 10369
10:00−28ююз11995 0.0 103710
13:00−18ююз11885 0.0 103489
16:00−17ююв00935 0.0 10349
19:00−24юз111005 0.0 10369
22:00−26юз1110013 0.0 10379